AirNav   Air Wisconsin pilot careers
 
 1136 users online  

84C Valhalla Airport
North Cape, Wisconsin, USA

GOING TO NORTH CAPE?


FAA INFORMATION EFFECTIVE 06 DECEMBER 2018

Location

FAA Identifier: 84C
Lat/Long: 42-45-45.0640N / 088-02-33.3040W
42-45.751067N / 088-02.555067W
42.7625178 / -88.0425844
(estimated)
Elevation: 805 ft. / 245 m (estimated)
Variation: 01W (1985)
From city: 2 miles SE of NORTH CAPE, WI
Time zone: UTC -6 (UTC -5 during Daylight Saving Time)
Zip code: 53126

Airport Operations

Airport use: Open to the public
Activation date: 09/1967
Control tower: no
ARTCC: CHICAGO CENTER
FSS: GREEN BAY FLIGHT SERVICE STATION
NOTAMs facility: GRB (NOTAM-D service available)
Attendance: 0800-1700
Wind indicator: no
Segmented circle: no

Airport Communications

CTAF/UNICOM: 122.8
WX ASOS at RAC (10 nm E): 121.425 (262-635-0959)
WX ASOS at ENW (11 nm SE): PHONE 262-652-7730
WX AWOS-3 at BUU (12 nm W): 114.5 (262-757-0907)
WX ASOS at MKE (13 nm NE): PHONE 414-489-2168
WX AWOS-3PT at 57C (15 nm W): 118.125 (262-642-1845)
WX AWOS-3 at UES (19 nm NW): 118.875 (262-521-5226)

Nearby radio navigation aids

VOR radial/distance  VOR name  Freq  Var
BAEr151/23.8BADGER VOR/DME116.4002E
OBKr355/32.7NORTHBROOK VOR/DME113.0002W
BJBr176/(39.7)WEST BEND VOR109.8001W

 
NDB name  Hdg/Dist  Freq  Var  ID
CODEE359/12.138902WEN . -.
LAKE LAWN083/24.640402WLVV .-.. ...- ...-
ROCK RIVER130/38.837101WRYV .-. -.-- ...-

Airport Services

Parking: tiedowns
Airframe service: MINOR
Powerplant service: NONE
Bottled oxygen: NONE
Bulk oxygen: NONE

Runway Information

Runway 9/27

Dimensions: 2540 x 80 ft. / 774 x 24 m
WIDTH VARIES FM 80 FT TO 108 FT.
Surface: turf, in poor condition
CAUTION: RWY EXTRMLY ROUGH & ELEV VARIES 30'; ACFT WITH NOSE WHEELS AVOID EAST 1100' OF RWY.
RUNWAY 9  RUNWAY 27
Latitude: 42-45.700667N42-45.651333N
Longitude: 088-02.835167W088-02.258167W
Elevation: 800.0 ft.770.0 ft.
Gradient: 1.2%1.2%
Traffic pattern: rightleft
Markings: nonenone
Runway end identifier lights: nono
Obstructions: 30 ft. trees, 120 ft. from runway, 100 ft. left of centerline, 4:1 slope to clear15 ft. road
ROAD RUNS PERPENDICULAR TO RWY.

Airport Ownership and Management from official FAA records

Ownership: Privately-owned
Owner: WILLIAM & KEVIN MORAN
4557 S 96 ST
FRANKSVILLE, WI 53126
Phone 262-878-8700
Manager: WILLIAM R. MORAN.
4557 S 96 ST
FRANKSVILLE, WI 53126
Phone 262-878-8700

Airport Operational Statistics

Aircraft based on the field: 1
Single engine airplanes: 1
    
Aircraft operations: 20/year *
50% transient general aviation
50% local general aviation
* for 12-month period ending 24 May 2016

Additional Remarks

RWY NOT PLOWED.
CALL AMGR ON 262-878-8700 PRIOR TO ARR TO CONFIRM CONDITION OF RY 09/27.

Instrument Procedures

There are no published instrument procedures at 84C.

Some nearby airports with instrument procedures:

KRAC - Batten International Airport (10 nm E)
KENW - Kenosha Regional Airport (11 nm SE)
KBUU - Burlington Municipal Airport (12 nm W)
KMKE - General Mitchell International Airport (13 nm NE)
57C - East Troy Municipal Airport (15 nm W)
C02 - Grand Geneva Resort Airport (18 nm SW)
KUES - Waukesha County Airport (19 nm NW)
 
Loc | Ops | Rwys | IFR | FBO | Links
Com | Nav | Svcs | Stats | Notes

General Mitchell International Airport
 
Area around 84C (Valhalla Airport)
 
Road maps at: MapQuest Bing Google
 
Aerial photo
No photo
 
Sectional chart

 
Airport distance calculator
Flying to Valhalla Airport? Find the distance to fly.

From to 84C

Sunrise and sunset
Times for 10-Dec-2018
 Local
(UTC-6)
 Zulu
(UTC)
Morning civil twilight06:4112:41
Sunrise07:1313:13
Sunset16:1722:17
Evening civil twilight16:4922:49

Current date and time
Zulu (UTC)  10-Dec-2018 14:26:03
Local (UTC-6)  10-Dec-2018 08:26:03
 
METAR
KRAC 
10nm E 
101353Z AUTO 28006KT 5SM BR CLR M07/M09 A3027 RMK AO2 SLP262 T10671089
KENW 
11nm SE 
101353Z 24004KT 3SM BR CLR M08/M09 A3026 RMK AO2 SLP261 I1000 T10831089
KBUU 
12nm SW 
101415Z AUTO 22003KT 4SM BR CLR M08/M10 A3026 RMK AO2 T10851096
KMKE 
13nm NE 
101352Z 24004KT 6SM HZ CLR M06/M09 A3025 RMK AO2 SLP256 T10611089
K57C 
15nm W 
101415Z AUTO 00000KT 5SM HZ CLR A3025 RMK AO2
KUES 
16nm N 
101345Z 23003KT 5SM BR SKC M11/M11 A3025
TAF
KENW 
11nm SE 
101122Z 1012/1112 VRB04KT 4SM BR FEW250 FM101400 26006KT 6SM BR FEW060 FM101700 24009KT P6SM SKC
KMKE 
13nm NE 
101122Z 1012/1118 26005KT 4SM BR FEW250 FM101300 26005KT 6SM BR FEW050 FM101600 24011KT P6SM FEW250 FM111100 27008KT P6SM FEW250 FM111700 30007KT P6SM FEW080
KUES 
16nm N 
101144Z 1012/1112 00000KT 5SM BR SKC FM101400 26005KT 6SM BR FEW020 FM101600 25007KT P6SM FEW080 FM101900 24009KT P6SM FEW020 FEW240
NOTAMs
Click for the latest NOTAMs
NOTAMs are issued by the DoD/FAA and will open in a separate window not controlled by AirNav.

 

 
 

Would you like to see your business listed on this page?

 If your business provides an interesting product or service to pilots, flight crews, aircraft, or users of the Valhalla Airport, you should consider listing it here.  To start the listing process, click on the button below
 
Add a business
 

Other Pages about Valhalla Airport

Page from the Wisconsin airport directory (PDF)
 
Update a link
 
Copyright © AirNav, LLC. All rights reserved. Privacy Policy  Contact